Location: Sungai Dangang
(2.7500°N, 113.8333°E)
Time: 19:11:36
(UTC+00:00)

Ariane H10+ - Pass Details

Date: 28 September 2021
Orbit: 237 x 7755 km, 6.8° (Epoch: 21 October)

Event Time Altitude Azimuth Distance (km) Brightness Sun altitude
Exits shadow 19:23:51 66° 211° (SSW) 3,054 4.6 -42.9°
Maximum altitude 19:26:24 72° 168° (SSE) 3,349 5.0 -42.2°
Drops below altitude 10° 20:09:26 10° 88° (E) 11,183 8.8 -31.5°
Sets 20:22:24 0° 86° (E) 12,630 9.4 -28.2°
